AVQ22 CYMJ-CYQT

Flight info

Callsign AVQ22
Flight time 1h 39m
Altitude 39000
Route CYMJ1 YMJ DCT DURUR Q828 GABOV Q831 AGLIN
Aircraft A20N/M-SDE2E3FGHIRWXY/LB1

Departure

Time 2026-04-30 00:20
Airport Moose Jaw Air Vice Marshal C. M. McEwen Airport (CYMJ)

Arrival

Time 2026-04-30 02:00
Airport Thunder Bay International Airport (CYQT)
Time Latitude Longitude Altitude Speed Heading
2026-04-30 00:18 50.32801 -105.54319 1885 ft 0 kts 204°
2026-04-30 00:19 50.32775 -105.54337 1887 ft 8 kts 205°
2026-04-30 00:19 50.32729 -105.54397 1884 ft 9 kts 256°
2026-04-30 00:19 50.32752 -105.54503 1881 ft 15 kts 297°
2026-04-30 00:20 50.32915 -105.54972 1885 ft 83 kts 299°
2026-04-30 00:20 50.33286 -105.56036 1884 ft 138 kts 298°
2026-04-30 00:20 50.33798 -105.57529 2095 ft 162 kts 298°
2026-04-30 00:20 50.34305 -105.59034 2816 ft 152 kts 297°
2026-04-30 00:21 50.34795 -105.60499 3396 ft 152 kts 297°
2026-04-30 00:21 50.35302 -105.62012 3802 ft 165 kts 297°
2026-04-30 00:21 50.36064 -105.63447 4085 ft 183 kts 329°
2026-04-30 00:21 50.37356 -105.63872 4392 ft 204 kts
2026-04-30 00:22 50.38710 -105.62913 4694 ft 229 kts 43°
2026-04-30 00:22 50.39629 -105.60745 5191 ft 252 kts 68°
2026-04-30 00:22 50.40268 -105.58057 5769 ft 272 kts 70°
2026-04-30 00:22 50.40980 -105.55323 6659 ft 276 kts 65°
2026-04-30 00:23 50.41842 -105.52601 7615 ft 280 kts 62°
2026-04-30 00:23 50.42810 -105.49926 8535 ft 284 kts 59°
2026-04-30 00:23 50.43842 -105.47261 9444 ft 288 kts 58°
2026-04-30 00:23 50.44910 -105.44572 10307 ft 294 kts 58°
2026-04-30 00:24 50.46032 -105.41758 10717 ft 316 kts 58°
2026-04-30 00:24 50.47239 -105.38722 11035 ft 338 kts 58°
2026-04-30 00:24 50.48501 -105.35536 11718 ft 346 kts 58°
2026-04-30 00:24 50.49774 -105.32310 12549 ft 349 kts 58°
2026-04-30 00:25 50.51058 -105.29049 13340 ft 354 kts 58°
2026-04-30 00:25 50.52360 -105.25739 14107 ft 358 kts 58°
2026-04-30 00:25 50.53674 -105.22391 14856 ft 362 kts 58°
2026-04-30 00:25 50.55004 -105.19000 15587 ft 366 kts 58°
2026-04-30 00:26 50.56345 -105.15575 16298 ft 370 kts 58°
2026-04-30 00:26 50.57702 -105.12106 16986 ft 374 kts 58°
2026-04-30 00:26 50.59068 -105.08609 17644 ft 378 kts 58°
2026-04-30 00:26 50.60451 -105.05061 18309 ft 381 kts 58°
2026-04-30 00:27 50.61844 -105.01485 18956 ft 385 kts 58°
2026-04-30 00:27 50.63246 -104.97877 19579 ft 388 kts 58°
2026-04-30 00:27 50.64647 -104.94266 20176 ft 392 kts 59°
2026-04-30 00:27 50.65778 -104.90342 20744 ft 396 kts 74°
2026-04-30 00:28 50.66185 -104.86042 21308 ft 400 kts 90°
2026-04-30 00:28 50.65855 -104.81696 21872 ft 403 kts 101°
2026-04-30 00:28 50.65325 -104.77323 22410 ft 407 kts 101°
2026-04-30 00:28 50.64792 -104.72936 22951 ft 410 kts 101°
2026-04-30 00:29 50.64255 -104.68504 23476 ft 413 kts 101°
2026-04-30 00:29 50.63715 -104.64031 23987 ft 417 kts 101°
2026-04-30 00:29 50.63171 -104.59540 24484 ft 420 kts 101°
2026-04-30 00:29 50.62620 -104.54996 24965 ft 423 kts 101°
2026-04-30 00:30 50.62063 -104.50413 25433 ft 426 kts 101°
2026-04-30 00:30 50.61501 -104.45817 25882 ft 429 kts 101°
2026-04-30 00:30 50.60934 -104.41191 26314 ft 432 kts 101°
2026-04-30 00:30 50.60361 -104.36526 26739 ft 435 kts 101°
2026-04-30 00:31 50.59780 -104.31821 27156 ft 438 kts 101°
2026-04-30 00:31 50.59203 -104.27162 27545 ft 441 kts 101°
2026-04-30 00:31 50.58613 -104.22410 27931 ft 444 kts 101°
2026-04-30 00:31 50.58017 -104.17628 28297 ft 446 kts 101°
2026-04-30 00:32 50.57415 -104.12819 28652 ft 449 kts 101°
2026-04-30 00:32 50.56809 -104.07992 28994 ft 451 kts 101°
2026-04-30 00:32 50.56198 -104.03136 29334 ft 453 kts 101°
2026-04-30 00:32 50.55582 -103.98271 29643 ft 456 kts 101°
2026-04-30 00:33 50.54958 -103.93352 29964 ft 458 kts 101°
2026-04-30 00:33 50.54332 -103.88436 30279 ft 460 kts 101°
2026-04-30 00:33 50.53701 -103.83501 30593 ft 462 kts 101°
2026-04-30 00:33 50.53064 -103.78534 30903 ft 464 kts 101°
2026-04-30 00:34 50.52432 -103.73619 31240 ft 465 kts 101°
2026-04-30 00:34 50.51788 -103.68638 31640 ft 465 kts 101°
2026-04-30 00:34 50.51143 -103.63666 32048 ft 464 kts 101°
2026-04-30 00:34 50.50498 -103.58706 32433 ft 463 kts 102°
2026-04-30 00:35 50.49852 -103.53757 32807 ft 462 kts 102°
2026-04-30 00:35 50.49202 -103.48804 33182 ft 462 kts 102°
2026-04-30 00:35 50.48554 -103.43871 33525 ft 461 kts 102°
2026-04-30 00:35 50.47904 -103.38950 33856 ft 460 kts 102°
2026-04-30 00:36 50.47253 -103.34037 34181 ft 460 kts 102°
2026-04-30 00:36 50.46602 -103.29131 34496 ft 459 kts 102°
2026-04-30 00:36 50.45946 -103.24219 34801 ft 458 kts 102°
2026-04-30 00:36 50.45513 -103.20977 35003 ft 458 kts 102°
2026-04-30 00:37 50.44859 -103.16103 35283 ft 457 kts 102°
2026-04-30 00:37 50.44203 -103.11224 35556 ft 457 kts 102°
2026-04-30 00:37 50.43545 -103.06352 35821 ft 456 kts 102°
2026-04-30 00:37 50.42887 -103.01495 36078 ft 455 kts 102°
2026-04-30 00:38 50.42226 -102.96636 36317 ft 455 kts 102°
2026-04-30 00:38 50.41564 -102.91778 36523 ft 455 kts 102°
2026-04-30 00:38 50.40899 -102.86918 36728 ft 455 kts 102°
2026-04-30 00:38 50.40233 -102.82071 36929 ft 455 kts 102°
2026-04-30 00:39 50.39565 -102.77217 37126 ft 455 kts 102°
2026-04-30 00:39 50.38895 -102.72370 37313 ft 455 kts 102°
2026-04-30 00:39 50.38222 -102.67517 37496 ft 455 kts 102°
2026-04-30 00:39 50.37555 -102.62728 37670 ft 455 kts 102°
2026-04-30 00:40 50.36880 -102.57889 37837 ft 455 kts 102°
2026-04-30 00:40 50.36203 -102.53043 38001 ft 455 kts 102°
2026-04-30 00:40 50.35613 -102.48166 38157 ft 455 kts 96°
2026-04-30 00:40 50.35269 -102.43239 38292 ft 455 kts 96°
2026-04-30 00:41 50.34940 -102.38307 38438 ft 455 kts 96°
2026-04-30 00:41 50.34613 -102.33371 38583 ft 455 kts 96°
2026-04-30 00:41 50.34284 -102.28446 38725 ft 455 kts 96°
2026-04-30 00:41 50.33952 -102.23519 38858 ft 455 kts 96°
2026-04-30 00:42 50.33617 -102.18591 38981 ft 455 kts 96°
2026-04-30 00:42 50.32940 -102.08735 39003 ft 454 kts 96°
2026-04-30 00:43 50.32256 -101.98916 38993 ft 454 kts 96°
2026-04-30 00:43 50.31558 -101.89081 39004 ft 454 kts 96°
2026-04-30 00:44 50.30849 -101.79257 39004 ft 454 kts 96°
2026-04-30 00:44 50.30137 -101.69505 38995 ft 454 kts 96°
2026-04-30 00:45 50.29413 -101.59695 39005 ft 454 kts 96°
2026-04-30 00:45 50.28680 -101.49883 39006 ft 454 kts 97°
2026-04-30 00:46 50.27939 -101.40079 39006 ft 454 kts 97°
2026-04-30 00:46 50.27188 -101.30268 38996 ft 454 kts 97°
2026-04-30 00:47 50.26431 -101.20465 39008 ft 454 kts 97°
2026-04-30 00:47 50.25665 -101.10668 39008 ft 454 kts 97°
2026-04-30 00:48 50.24891 -101.00884 39007 ft 454 kts 97°
2026-04-30 00:48 50.24108 -100.91088 38994 ft 454 kts 97°
2026-04-30 00:49 50.23323 -100.81372 38999 ft 454 kts 97°
2026-04-30 00:49 50.22525 -100.71592 38995 ft 454 kts 97°
2026-04-30 00:50 50.21719 -100.61824 38998 ft 454 kts 97°
2026-04-30 00:50 50.20903 -100.52037 39001 ft 454 kts 97°
2026-04-30 00:51 50.20081 -100.42276 39001 ft 453 kts 97°
2026-04-30 00:51 50.19250 -100.32516 39000 ft 454 kts 97°
2026-04-30 00:52 50.18412 -100.22757 38997 ft 454 kts 97°
2026-04-30 00:52 50.17564 -100.13001 38997 ft 454 kts 98°
2026-04-30 00:53 50.16708 -100.03248 38993 ft 454 kts 98°
2026-04-30 00:53 50.15844 -99.93491 38993 ft 454 kts 98°
2026-04-30 00:54 50.14976 -99.83796 39000 ft 454 kts 98°
2026-04-30 00:54 50.14095 -99.74040 39003 ft 454 kts 98°
2026-04-30 00:55 50.13207 -99.64298 39001 ft 454 kts 98°
2026-04-30 00:55 50.11857 -99.49672 39010 ft 454 kts 98°
2026-04-30 00:56 50.10947 -99.39923 39012 ft 454 kts 98°
2026-04-30 00:56 50.10029 -99.30183 39015 ft 454 kts 98°
2026-04-30 00:57 50.09103 -99.20453 39006 ft 454 kts 98°
2026-04-30 00:57 50.08176 -99.10788 39016 ft 454 kts 98°
2026-04-30 00:58 50.07234 -99.01069 39006 ft 454 kts 98°
2026-04-30 00:58 50.06285 -98.91354 39014 ft 454 kts 98°
2026-04-30 00:59 50.05331 -98.81684 39000 ft 453 kts 99°
2026-04-30 00:59 50.04368 -98.71997 38999 ft 453 kts 99°
2026-04-30 01:00 50.03397 -98.62321 39006 ft 452 kts 99°
2026-04-30 01:00 50.02426 -98.52730 38994 ft 452 kts 99°
2026-04-30 01:01 50.01440 -98.43069 39003 ft 452 kts 99°
2026-04-30 01:01 50.00447 -98.33429 38998 ft 452 kts 99°
2026-04-30 01:02 49.99447 -98.23791 38997 ft 451 kts 99°
2026-04-30 01:02 49.98439 -98.14168 38998 ft 451 kts 99°
2026-04-30 01:03 49.97424 -98.04552 38996 ft 451 kts 99°
2026-04-30 01:03 49.96399 -97.94920 38996 ft 451 kts 99°
2026-04-30 01:04 49.95367 -97.85305 38991 ft 451 kts 99°
2026-04-30 01:04 49.94334 -97.75753 38990 ft 451 kts 99°
2026-04-30 01:05 49.93286 -97.66148 38992 ft 451 kts 99°
2026-04-30 01:05 49.92230 -97.56538 38994 ft 452 kts 99°
2026-04-30 01:06 49.91165 -97.46927 38998 ft 452 kts 99°
2026-04-30 01:06 49.90093 -97.37325 39005 ft 452 kts 100°
2026-04-30 01:07 49.89009 -97.27699 39007 ft 452 kts 100°
2026-04-30 01:07 49.87925 -97.18140 39004 ft 452 kts 100°
2026-04-30 01:08 49.86826 -97.08529 39007 ft 453 kts 100°
2026-04-30 01:08 49.85719 -96.98920 39005 ft 453 kts 100°
2026-04-30 01:09 49.84605 -96.89318 39008 ft 453 kts 100°
2026-04-30 01:09 49.83483 -96.79721 39007 ft 453 kts 100°
2026-04-30 01:10 49.82353 -96.70135 39000 ft 453 kts 100°
2026-04-30 01:10 49.81215 -96.60549 38997 ft 453 kts 100°
2026-04-30 01:11 49.80070 -96.50969 39006 ft 452 kts 101°
2026-04-30 01:11 49.78914 -96.41377 38994 ft 452 kts 101°
2026-04-30 01:12 49.77753 -96.31811 39002 ft 452 kts 101°
2026-04-30 01:12 49.76593 -96.22314 38997 ft 452 kts 101°
2026-04-30 01:13 49.75416 -96.12759 38994 ft 452 kts 101°
2026-04-30 01:13 49.74233 -96.03213 39000 ft 452 kts 101°
2026-04-30 01:14 49.73041 -95.93665 38993 ft 452 kts 101°
2026-04-30 01:14 49.71842 -95.84134 38994 ft 452 kts 101°
2026-04-30 01:15 49.70636 -95.74611 38991 ft 452 kts 101°
2026-04-30 01:15 49.69421 -95.65083 38992 ft 452 kts 101°
2026-04-30 01:16 49.68199 -95.55566 38992 ft 452 kts 101°
2026-04-30 01:16 49.66976 -95.46108 38992 ft 452 kts 101°
2026-04-30 01:17 49.65737 -95.36591 38999 ft 452 kts 101°
2026-04-30 01:17 49.64491 -95.27082 39001 ft 452 kts 101°
2026-04-30 01:18 49.63235 -95.17564 38994 ft 453 kts 101°
2026-04-30 01:18 49.61971 -95.08044 39006 ft 453 kts 102°
2026-04-30 01:19 49.60698 -94.98525 39004 ft 453 kts 102°
2026-04-30 01:19 49.59419 -94.89021 38996 ft 453 kts 102°
2026-04-30 01:20 49.58130 -94.79513 39009 ft 453 kts 102°
2026-04-30 01:20 49.56833 -94.70004 39009 ft 453 kts 102°
2026-04-30 01:21 49.55530 -94.60506 39004 ft 453 kts 102°
2026-04-30 01:21 49.54219 -94.51024 38997 ft 453 kts 102°
2026-04-30 01:22 49.52908 -94.41591 39004 ft 453 kts 102°
2026-04-30 01:22 49.51585 -94.32111 39003 ft 453 kts 102°
2026-04-30 01:23 49.50258 -94.22634 39004 ft 453 kts 102°
2026-04-30 01:23 49.48924 -94.13161 38998 ft 453 kts 102°
2026-04-30 01:24 49.47806 -94.05291 39003 ft 453 kts 102°
2026-04-30 01:24 49.46454 -93.94224 39005 ft 453 kts 99°
2026-04-30 01:25 49.45640 -93.86280 38997 ft 453 kts 99°
2026-04-30 01:25 49.44621 -93.76746 38997 ft 452 kts 99°
2026-04-30 01:26 49.43563 -93.67206 38999 ft 452 kts 99°
2026-04-30 01:26 49.42491 -93.57677 38999 ft 452 kts 100°
2026-04-30 01:27 49.41412 -93.48159 38995 ft 452 kts 100°
2026-04-30 01:27 49.40325 -93.38641 38995 ft 452 kts 100°
2026-04-30 01:28 49.39230 -93.29124 38996 ft 453 kts 100°
2026-04-30 01:28 49.38128 -93.19615 38995 ft 453 kts 100°
2026-04-30 01:29 49.37017 -93.10104 38990 ft 453 kts 100°
2026-04-30 01:29 49.35906 -93.00658 39000 ft 453 kts 100°
2026-04-30 01:30 49.34780 -92.91157 39000 ft 453 kts 100°
2026-04-30 01:30 49.33645 -92.81651 38998 ft 453 kts 100°
2026-04-30 01:31 49.32501 -92.72145 39006 ft 453 kts 100°
2026-04-30 01:31 49.31350 -92.62642 39004 ft 453 kts 101°
2026-04-30 01:32 49.30190 -92.53136 38996 ft 454 kts 101°
2026-04-30 01:32 49.29023 -92.43644 38998 ft 454 kts 101°
2026-04-30 01:33 49.27847 -92.34146 38997 ft 454 kts 101°
2026-04-30 01:33 49.26665 -92.24659 38999 ft 454 kts 101°
2026-04-30 01:34 49.25473 -92.15169 39003 ft 454 kts 101°
2026-04-30 01:34 49.24274 -92.05683 38999 ft 454 kts 101°
2026-04-30 01:35 49.23074 -91.96262 39005 ft 454 kts 101°
2026-04-30 01:35 49.21860 -91.86785 39004 ft 453 kts 101°
2026-04-30 01:36 49.20638 -91.77323 39003 ft 453 kts 101°
2026-04-30 01:36 49.19409 -91.67864 39000 ft 453 kts 101°
2026-04-30 01:37 49.18172 -91.58410 39003 ft 453 kts 101°
2026-04-30 01:37 49.16930 -91.48974 38911 ft 451 kts 101°
2026-04-30 01:38 49.16308 -91.44276 38482 ft 451 kts 101°
2026-04-30 01:38 49.15682 -91.39561 37763 ft 454 kts 101°
2026-04-30 01:38 49.15048 -91.34803 36883 ft 459 kts 101°
2026-04-30 01:38 49.14404 -91.29990 35945 ft 465 kts 101°
2026-04-30 01:39 49.13754 -91.25139 35046 ft 468 kts 102°
2026-04-30 01:39 49.13097 -91.20260 34166 ft 470 kts 102°
2026-04-30 01:39 49.12437 -91.15374 33273 ft 471 kts 102°
2026-04-30 01:39 49.11771 -91.10463 32346 ft 473 kts 102°
2026-04-30 01:40 49.11101 -91.05535 31396 ft 475 kts 102°
2026-04-30 01:40 49.10435 -91.00653 30492 ft 476 kts 102°
2026-04-30 01:40 49.09765 -90.95754 29966 ft 468 kts 102°
2026-04-30 01:40 49.09099 -90.90908 29367 ft 462 kts 102°
2026-04-30 01:41 49.08441 -90.86134 28761 ft 457 kts 102°
2026-04-30 01:41 49.07790 -90.81424 28173 ft 452 kts 102°
2026-04-30 01:41 49.07142 -90.76755 27584 ft 447 kts 102°
2026-04-30 01:41 49.06501 -90.72146 26997 ft 442 kts 102°
2026-04-30 01:42 49.05866 -90.67596 26418 ft 437 kts 102°
2026-04-30 01:42 49.05235 -90.63089 25843 ft 432 kts 102°
2026-04-30 01:42 49.04609 -90.58632 25264 ft 427 kts 102°
2026-04-30 01:42 49.03987 -90.54219 24702 ft 423 kts 102°
2026-04-30 01:43 49.03373 -90.49868 24141 ft 419 kts 102°
2026-04-30 01:43 49.02761 -90.45549 23574 ft 414 kts 102°
2026-04-30 01:43 49.02155 -90.41288 23029 ft 410 kts 102°
2026-04-30 01:43 49.01560 -90.37109 22471 ft 406 kts 102°
2026-04-30 01:44 49.00964 -90.32937 21920 ft 402 kts 102°
2026-04-30 01:44 49.00371 -90.28795 21370 ft 398 kts 102°
2026-04-30 01:44 48.99781 -90.24694 20826 ft 394 kts 102°
2026-04-30 01:44 48.99197 -90.20639 20279 ft 390 kts 102°
2026-04-30 01:45 48.98617 -90.16624 19735 ft 387 kts 102°
2026-04-30 01:45 48.98040 -90.12637 19208 ft 383 kts 102°
2026-04-30 01:45 48.97468 -90.08697 18671 ft 380 kts 102°
2026-04-30 01:45 48.96900 -90.04791 18146 ft 376 kts 102°
2026-04-30 01:46 48.96337 -90.00924 17615 ft 373 kts 102°
2026-04-30 01:46 48.95776 -89.97082 17097 ft 370 kts 102°
2026-04-30 01:46 48.95220 -89.93282 16574 ft 367 kts 103°
2026-04-30 01:46 48.94340 -89.89677 16062 ft 363 kts 119°
2026-04-30 01:47 48.92830 -89.86651 15547 ft 359 kts 136°
2026-04-30 01:47 48.90854 -89.84354 15044 ft 356 kts 145°
2026-04-30 01:47 48.88837 -89.82215 14537 ft 353 kts 145°
2026-04-30 01:47 48.86855 -89.80109 14040 ft 350 kts 145°
2026-04-30 01:48 48.84868 -89.77993 13542 ft 348 kts 145°
2026-04-30 01:48 48.82898 -89.75893 13033 ft 345 kts 145°
2026-04-30 01:48 48.80938 -89.73805 12555 ft 342 kts 145°
2026-04-30 01:48 48.79051 -89.71622 12066 ft 340 kts 139°
2026-04-30 01:49 48.77407 -89.69060 11581 ft 337 kts 130°
2026-04-30 01:49 48.76037 -89.66192 11103 ft 334 kts 124°
2026-04-30 01:49 48.74745 -89.63275 10621 ft 332 kts 124°
2026-04-30 01:49 48.73461 -89.60405 10325 ft 324 kts 124°
2026-04-30 01:50 48.72222 -89.57646 10193 ft 310 kts 124°
2026-04-30 01:50 48.71043 -89.55031 10039 ft 299 kts 124°
2026-04-30 01:50 48.69878 -89.52449 9711 ft 294 kts 124°
2026-04-30 01:50 48.68741 -89.49931 9565 ft 288 kts 124°
2026-04-30 01:51 48.67598 -89.47405 9267 ft 294 kts 124°
2026-04-30 01:51 48.66436 -89.44836 8875 ft 296 kts 124°
2026-04-30 01:51 48.65274 -89.42269 8501 ft 295 kts 124°
2026-04-30 01:51 48.64119 -89.39721 8122 ft 292 kts 124°
2026-04-30 01:52 48.62977 -89.37203 7744 ft 289 kts 124°
2026-04-30 01:52 48.61843 -89.34706 7373 ft 287 kts 124°
2026-04-30 01:52 48.60718 -89.32231 6993 ft 284 kts 124°
2026-04-30 01:52 48.59604 -89.29782 6624 ft 281 kts 124°
2026-04-30 01:53 48.58500 -89.27355 6259 ft 279 kts 124°
2026-04-30 01:53 48.57407 -89.24945 5893 ft 277 kts 124°
2026-04-30 01:53 48.56318 -89.22561 5529 ft 275 kts 125°
2026-04-30 01:53 48.55236 -89.20198 5164 ft 273 kts 125°
2026-04-30 01:54 48.54174 -89.17879 4981 ft 263 kts 125°
2026-04-30 01:54 48.53156 -89.15653 4878 ft 252 kts 125°
2026-04-30 01:54 48.52182 -89.13527 4781 ft 241 kts 125°
2026-04-30 01:54 48.51173 -89.11580 4616 ft 233 kts 139°
2026-04-30 01:55 48.49805 -89.10381 4438 ft 225 kts 162°
2026-04-30 01:55 48.48324 -89.09634 4201 ft 225 kts 162°
2026-04-30 01:55 48.46860 -89.08876 3930 ft 226 kts 161°
2026-04-30 01:55 48.45373 -89.08114 3653 ft 225 kts 166°
2026-04-30 01:56 48.43843 -89.08148 3387 ft 221 kts 200°
2026-04-30 01:56 48.42629 -89.09449 3308 ft 219 kts 235°
2026-04-30 01:56 48.41996 -89.11549 3245 ft 222 kts 251°
2026-04-30 01:56 48.41527 -89.13733 3105 ft 215 kts 253°
2026-04-30 01:57 48.41090 -89.15817 3046 ft 201 kts 252°
2026-04-30 01:57 48.40679 -89.17703 2938 ft 179 kts 252°
2026-04-30 01:57 48.40300 -89.19381 2804 ft 159 kts 251°
2026-04-30 01:57 48.39952 -89.20887 2581 ft 149 kts 251°
2026-04-30 01:58 48.39624 -89.22289 2408 ft 135 kts 251°
2026-04-30 01:58 48.39313 -89.23609 2098 ft 134 kts 251°
2026-04-30 01:58 48.39003 -89.24925 1780 ft 133 kts 251°
2026-04-30 01:58 48.38695 -89.26233 1465 ft 132 kts 250°
2026-04-30 01:59 48.38102 -89.28801 930 ft 126 kts 252°
2026-04-30 01:59 48.37820 -89.30008 736 ft 118 kts 246°
2026-04-30 01:59 48.37550 -89.31090 652 ft 88 kts 250°
2026-04-30 02:00 48.37445 -89.31521 653 ft 1 kts 250°
2026-04-30 02:00 48.37430 -89.31585 654 ft 14 kts 251°
2026-04-30 02:00 48.37393 -89.31738 654 ft 17 kts 244°
2026-04-30 02:00 48.37294 -89.31780 655 ft 17 kts 166°
2026-04-30 02:01 48.37251 -89.31653 655 ft 17 kts 76°
2026-04-30 02:01 48.37293 -89.31476 654 ft 20 kts 70°
2026-04-30 02:01 48.37314 -89.31340 654 ft 9 kts 121°
2026-04-30 02:01 48.37284 -89.31340 654 ft 4 kts 206°
2026-04-30 02:02 48.37255 -89.31320 652 ft 6 kts 135°
2026-04-30 02:02 48.37232 -89.31283 652 ft 0 kts 132°